Location: Newark
(39.0622°N, 106.5590°E)
Time: 02:59:59
(UTC+00:00)

Transit 4A - Visible Passes

Search period start: 20 January 2020 00:00
Search period end: 30 January 2020 00:00
Orbit: 871 x 973 km, 66.8° (Epoch: 19 January)

Date Brightness Start Highest point End Pass type
(mag) Time Alt. Az. Time Alt. Az. Time Alt. Az.
20 Jan 10.6 11:00:13 10° WNW 11:04:24 21° WSW 11:08:38 10° SSW visible
20 Jan 11.2 22:35:46 10° SE 22:38:34 14° ESE 22:41:21 10° ENE visible
21 Jan 11.2 11:10:59 10° WNW 11:13:27 13° WSW 11:15:56 10° SW visible
21 Jan 10.5 22:43:10 10° SSE 22:47:37 22° ESE 22:52:01 10° ENE visible
22 Jan 9.8 22:51:24 10° S 22:56:44 33° ESE 23:01:59 10° NE visible
23 Jan 8.9 23:00:05 10° S 23:05:56 50° ESE 23:11:39 10° NE visible
24 Jan 8.1 23:09:08 10° SSW 23:15:11 76° ESE 23:21:07 10° NNE visible
25 Jan 10.6 21:35:17 10° SE 21:38:49 16° ESE 21:42:18 10° ENE visible
25 Jan 7.8 23:18:27 10° SW 23:24:30 73° WNW 23:30:26 10° NNE visible
26 Jan 10.0 21:43:04 10° SSE 21:47:53 25° ESE 21:52:38 10° NE visible
26 Jan 8.0 23:28:04 10° SW 23:33:54 49° WNW 23:39:38 10° NNE visible
27 Jan 9.2 21:51:29 10° S 21:57:01 38° ESE 22:02:28 10° NE visible
28 Jan 8.4 22:00:19 10° SSW 22:06:14 59° ESE 22:12:03 10° NE visible
29 Jan 10.6 20:28:06 10° ESE 20:30:02 12° ESE 20:31:57 10° E visible
29 Jan 7.8 22:09:27 10° SSW 22:15:31 87° ESE 22:21:28 10° NNE visible
